This demonstration page uses our WeatherBlox Daily Observations layout. Learn more.

41.55636, -103.73856

Hourly Observations for May 28, 2015

Temp ( °F °C ) Dew Point ( °F °C ) Humidity (%) Winds ( mph kmh ) Pressure ( in mb ) Visibility ( mi km ) Precip ( " mm )
12:53 am 00:53 Partly Cloudy 59 15 54 12.2 83 83 W 3 6 29.94 1014 10 16.0934 0.01 0.254
1:53 am 01:53 Mostly Clear 59 15 53 11.7 81 81 SE 5 7 29.96 1015 10 16.0934 0 0
2:53 am 02:53 Clear 56 13.3 52 11.1 87 87 ESE 7 11 29.93 1014 10 16.0934 0 0
3:53 am 03:53 Clear 53 11.7 50 10 89 89 Calm 29.91 1013 10 16.0934 0 0
4:53 am 04:53 Clear 53 11.7 51 10.6 93 93 Calm 29.91 1013 10 16.0934 0 0
5:53 am 05:53 Sunny 50 10 49 9.4 96 96 E 3 6 29.92 1013 10 16.0934 0 0
6:53 am 06:53 Sunny 56 13.3 53 11.7 90 90 Calm 29.91 1013 10 16.0934 0 0
7:53 am 07:53 Sunny 60 15.6 55 12.8 84 84 Calm 29.92 1013 10 16.0934 0 0
8:53 am 08:53 Mostly Sunny 63 17.2 56 13.3 78 78 undefined N/A 29.92 1013 10 16.0934 0 0
9:53 am 09:53 Mostly Sunny 67 19.4 51 10.6 57 57 W 7 11 29.9 1013 10 16.0934 0 0
10:53 am 10:53 Sunny 71 21.7 54 12.2 55 55 NW 12 19 29.89 1012 10 16.0934 0 0
11:53 am 11:53 Sunny 73 22.8 50 10 44 44 W 13 20 29.88 1012 10 16.0934 0 0
12:53 pm 12:53 Mostly Sunny 73 22.8 49 9.4 43 43 W 12 19 29.87 1011 10 16.0934 0 0
1:53 pm 13:53 Sunny 68 20 49 9.4 51 51 W 6 9 29.86 1011 10 16.0934 0 0
2:53 pm 14:53 Partly Cloudy 72 22.2 47 8.3 41 41 W 10 17 29.84 1011 10 16.0934 0 0
3:53 pm 15:53 Mostly Sunny 73 22.8 48 8.9 41 41 W 6 9 29.82 1010 10 16.0934 0 0
4:53 pm 16:53 Sunny 75 23.9 47 8.3 37 37 WNW 8 13 29.8 1009 10 16.0934 0 0
5:50 pm 17:50 Sunny 72 22 54 12 53 53 NE 12 19 29.71 1006 10 16.0934 0 0
5:53 pm 17:53 Sunny 71 21.7 54 12.2 55 55 NNE 10 17 29.82 1010 10 16.0934 0 0
6:53 pm 18:53 Sunny 68 20 54 12.2 61 61 ENE 14 22 29.83 1010 10 16.0934 0 0
7:19 pm 19:19 Partly Cloudy with Nearby Thunderstorms 66 18.9 52 11.1 61 61 N 20 31 29.77 1008 10 16.0934 0 0
7:28 pm 19:28 Mostly Cloudy with Nearby Thunderstorms 63 17 46 8 56 56 NNE 21 33 29.83 1010 9 14.48406 0 0
7:39 pm 19:39 Partly Cloudy with Thunderstorms 60 15.6 48 8.9 65 65 NNE 21 33 29.83 1010 10 16.0934 0 0
7:53 pm 19:53 Mostly Cloudy with Nearby Thunderstorms 59 15 49 9.4 69 69 NNE 15 24 29.89 1012 10 16.0934 0 0
8:14 pm 20:14 Cloudy 59 15 48 9 68 68 ENE 9 15 29.88 1012 10 16.0934 0 0
8:35 pm 20:35 Cloudy with Nearby Thunderstorms 58 14.4 50 10 75 75 ESE 5 7 29.88 1012 10 16.0934 0 0
8:53 pm 20:53 Cloudy with Light Thunderstorms 59 15 50 10 72 72 W 17 28 29.98 1015 10 16.0934 0 0.0254
9:04 pm 21:04 Cloudy with Thunderstorms 57 14 52 11 82 82 NW 12 19 30 1016 5 8.0467 0 0
9:18 pm 21:18 Cloudy with Nearby Thunderstorms 55 13 52 11 88 88 NNE 12 19 29.97 1015 8 12.87472 0 0
9:36 pm 21:36 Cloudy with Light Rain 57 13.9 51 10.6 81 81 NNE 17 28 29.91 1013 10 16.0934 0.06 1.524
9:53 pm 21:53 Mostly Cloudy 57 13.9 50 10 78 78 NNE 18 30 29.95 1014 10 16.0934 0.06 1.524
10:53 pm 22:53 Mostly Cloudy 57 13.9 50 10 78 78 WNW 7 11 29.98 1015 10 16.0934 0 0
11:53 pm 23:53 Partly Cloudy 55 12.8 52 11.1 90 90 NNW 7 11 29.98 1015 10 16.0934 0 0

Powered by AerisWeather